Location: ??? ???
(33.4974°N, 35.4618°E)
Time: 17:39:17
(UTC+00:00)

YAOGAN 1 - Pass Details

Date: 29 October 2020
Orbit: 618 x 620 km, 97.9° (Epoch: 29 November)

Event Time Altitude Azimuth Distance (km) Brightness Sun altitude
Rises 15:34:37 0° 135° (SE) 2,884 5.7 -10.2°
Reaches altitude 10° 15:37:10 10° 120° (ESE) 1,982 4.7 -10.7°
Maximum altitude 15:40:29 22° 70° (ENE) 1,366 3.7 -11.4°
Drops below altitude 10° 15:43:48 10° 20° (NNE) 1,991 4.9 -12.0°
Sets 15:46:22 0° 5° (N) 2,901 5.9 -12.6°
